Starlink 11243

operational
NORAD ID: 60927 Int'l Des: 2024-155 Owner: SPXS Country: US Constellation: starlink
LEOCIRCULAR

Über Starlink 11243

Beschreibung wird geladen...

Live-Position

3D-Globus wird geladen...

Nächste Überflüge

Höhenverlauf

Altitude vs Time

uPlot chart will show altitude changes over time

Zweizeiliger Elementsatz

1 60927U 24155D 25259.31893540 -.00001878 00000-0 -10649-4 0 9997
2 60927 53.1586 120.9746 0000877 97.9540 262.1578 15.69706798 61016
Epoch: 16. Sept. 2025 • Age: 25 hours

Aktueller Status

Höhe 363.8 km
Geschwindigkeit 7.70 km/s
Subsatellitenpunkt 44.04°N, 40.09°E
Startdatum 31. Aug. 2024
Alter 1 years
Typ internet

Technische Details

Klassifizierung Payload
Masse 960.00 kg
Trockenmasse 910.00 kg
Gesamtmasse 960.00 kg
Länge 0.30 m
Durchmesser 4.10 m
Spannweite 29.00 m
Form Box + pan
Hersteller SPXS
Bus-Typ Starlink V2MD
Phasenstatus In Orbit
Besitzer/Staat SPXS/US

Große Konstellationen

Loading constellations...